Regional Weather Roundup
Issued by NWS

Home | Current Version | Previous Version | Graphics & Text | Print | Product List | Glossary On
Versions: 1 2 3 4 5 6 7 8 9 10 11 12 13 14 15 16 17 18 19 20 21 22 23 24 25 26 27 28 29 30 31 32 33 34 35 36 37 38 39 40 41 42 43 44 45 46 47 48 49 50
000
ASUS44 KMEG 021010
RWRTN
TENNESSEE HOURLY STATE WEATHER ROUNDUP
NATIONAL WEATHER SERVICE MEMPHIS TN
400 AM CST FRI DEC 02 2016

TNZ002-004-019-021-049-052-054-088>092-021100-
WEST TENNESSEE

CITY           SKY/WX    TMP DP  RH WIND       PRES   REMARKS
MEMPHIS INTL   CLEAR     40  30  67 CALM      30.18S
NWS MEMPHIS      N/A     33 N/A N/A MISG        N/A
JACKSON        PTCLDY    29  27  92 CALM      30.19R
DYERSBURG      CLEAR    N/A N/A N/A CALM      30.20R
UNION CITY     CLEAR     27  27 100 CALM      30.17R
PARIS          CLEAR     27  25  93 CALM      30.17S
HUNTINGDON     CLEAR     30  28  93 CALM      30.17S
LEXINGTON      CLEAR     27  27 100 CALM      30.17S
$$

TNZ008-025-027-028-033-062-065-066-021100-
NORTH MIDDLE TENNESSEE

CITY           SKY/WX    TMP DP  RH WIND       PRES   REMARKS
NASHVILLE      CLEAR     32  27  81 S3        30.19S
PORTLAND       CLEAR     28  28 100 S3        30.18R
CLARKSVILLE    CLEAR     28  25  88 CALM      30.18S
SMYRNA         CLEAR     28  27  96 CALM      30.21R
CROSSVILLE     CLEAR     31  25  78 W3        30.16R
$$

TNZ061-075-076-078-094-096-097-021100-
SOUTH MIDDLE TENNESSEE

CITY           SKY/WX    TMP DP  RH WIND       PRES   REMARKS
FAYETTEVILLE   CLEAR     32  28  86 CALM      30.18S
TULLAHOMA      CLEAR     28  25  86 CALM      30.17F
WINCHESTER     CLEAR     27  25  93 CALM      30.19R
MCMINNVILLE    CLEAR     27  27 100 CALM      30.18S
COLUMBIA       CLEAR    N/A N/A N/A CALM      30.17S
SHELBYVILLE    CLEAR     30  28  93 E5        30.19F WCI  25
$$

TNZ017-018-042-046-047-021100-
NORTHEAST TENNESSEE

CITY           SKY/WX    TMP DP  RH WIND       PRES   REMARKS
TRI CITIES     PTCLDY    28  26  92 CALM      30.13R
ELIZABETHTON   CLEAR     28  28 100 CALM      30.14R
$$

TNZ012-013-036-069-073-074-021100-
CENTRAL EAST TENNESSEE

CITY           SKY/WX    TMP DP  RH WIND       PRES   REMARKS
KNOXVILLE      CLEAR     34  29  82 SW5       30.16R WCI  30
OAK RIDGE      CLEAR     32  28  85 CALM      30.19R
DOWNTOWN KNOXV FOG       32  32 100 CALM      30.18R VSB 0
GATLINBURG     CLEAR     27  27 100 CALM      30.16R
MORRISTOWN     CLEAR     32  30  93 W5        30.14R WCI  27
JACKSBORO      CLEAR     28  28 100 CALM      30.19R
$$

TNZ083-085-099-021100-
SOUTHEAST TENNESSEE

CITY           SKY/WX    TMP DP  RH WIND       PRES   REMARKS
CHATTANOOGA    CLEAR     36  31  82 CALM      30.20R
$$

SKY/WX REPORTED AS FAIR MEANS FEW OR NO CLOUDS BELOW
12 THOUSAND FEET.





USA.gov is the U.S. government's official web portal to all federal, state and local government web resources and services.